Change the Weather History Date:

Saturday, February 8, 2014

  Actual Average Record
Temperature  
Mean Temperature -7 °F 23 °F  
Max Temperature 5 °F 34 °F 60 °F (1954)
Min Temperature -19 °F 12 °F -44 °F (1994)
Degree Days  
Heating Degree Days 72 42  
Month to date heating degree days 577 336  
Since 1 July heating degree days 5285 5254  
Cooling Degree Days 0 0  
Month to date cooling degree days 0 0  
Year to date cooling degree days 0 0  
Moisture  
Dew Point -8 °F    
Average Humidity 79    
Maximum Humidity 86    
Minimum Humidity 72    
Precipitation  
Precipitation 0.00 in 0.01 in 0.33 in (1916)
Month to date precipitation 0.01 0.05  
Year to date precipitation 0.46 0.25  
Snow  
Snow 0.00 in - - ()
Snow Depth 4.00 in    
Sea Level Pressure  
Sea Level Pressure 30.23 in    
Wind  
Wind Speed 11 mph (NNW)    
Max Wind Speed 23 mph    
Max Gust Speed 26 mph    
Visibility 9 miles    
Events      
T = Trace of Precipitation, MM = Missing Value Source: NWS Daily Summary

Daily Weather History Graph

Daily Weather History Graph

Search for Another Location

Airport or City:

Trip Planner

Search our weather history database for the weather conditions in past years. The results will help you decide how hot, cold, wet, or windy it might be!

Date:

Astronomy

Feb. 08, 2014 Rise Set
Actual Time 7:48 AM MST 5:39 PM MST
Civil Twilight 7:15 AM MST 6:12 PM MST
Nautical Twilight 6:38 AM MST 6:49 PM MST
Astronomical Twilight 6:01 AM MST 7:26 PM MST
Moon 12:28 PM MST (2/8) 3:11 AM MST (2/8)
Length of Visible Light 10h 57m
Length of Day
9h 51m
Waxing Gibbous, 69% of the Moon is Illuminated
Feb 8
Waxing Gibbous
Feb 14
Full
Feb 22
Last Quarter
Mar 1
New
Mar 8
First Quarter

Hourly Weather History & Observations

Time (MST) Temp. Windchill Dew Point Humidity Pressure Visibility Wind Dir Wind Speed Gust Speed Precip Events Conditions
12:56 AM -2.9 °F -25.0 °F -8.0 °F 79% 30.12 in 10.0 mi NNW 18.4 mph - N/A   Partly Cloudy
1:32 AM -2.9 °F -11.2 °F -8.0 °F 79% 29.90 in 10.0 mi NW 3.5 mph - N/A   Overcast
1:56 AM -0.9 °F -16.4 °F -7.1 °F 75% 30.13 in 10.0 mi NNW 9.2 mph - N/A   Overcast
2:08 AM -0.9 °F -18.3 °F -6.0 °F 79% 29.91 in 10.0 mi North 11.5 mph - N/A   Overcast
2:56 AM -0.0 °F -20.7 °F -6.0 °F 76% 30.14 in 10.0 mi North 17.3 mph - N/A   Overcast
3:36 AM -0.0 °F -18.7 °F -6.0 °F 76% 29.92 in 10.0 mi NNW 13.8 mph - N/A   Overcast
3:56 AM -0.0 °F -19.4 °F -5.1 °F 79% 30.16 in 10.0 mi NNW 15.0 mph - N/A   Overcast
4:24 AM -0.0 °F -20.1 °F -5.1 °F 79% 29.93 in 7.0 mi NNW 16.1 mph - N/A   Overcast
4:32 AM -0.0 °F -19.4 °F -5.1 °F 79% 29.94 in 9.0 mi NW 15.0 mph - N/A   Overcast
4:56 AM -0.0 °F -19.4 °F -5.1 °F 79% 30.19 in 9.0 mi NW 15.0 mph - N/A   Overcast
5:17 AM 1.0 °F -10.3 °F -5.1 °F 75% 29.97 in 8.0 mi NNW 5.8 mph - N/A   Overcast
5:56 AM 1.0 °F -14.9 °F -5.1 °F 75% 30.23 in 10.0 mi NNW 10.4 mph - N/A   Overcast
6:09 AM 1.0 °F -18.0 °F -5.1 °F 75% 29.99 in 9.0 mi NNW 15.0 mph - N/A   Overcast
6:56 AM -0.0 °F -20.7 °F -5.1 °F 79% 30.26 in 5.0 mi NNW 17.3 mph - N/A   Haze
7:30 AM -2.0 °F -21.2 °F -6.0 °F 83% 30.02 in 9.0 mi NNW 13.8 mph - N/A   Overcast
7:56 AM -0.9 °F -21.9 °F -6.0 °F 79% 30.29 in 6.0 mi NNW 17.3 mph - N/A   Haze
8:13 AM -2.0 °F -21.2 °F -7.1 °F 79% 30.04 in 9.0 mi NNW 13.8 mph - N/A   Mostly Cloudy
8:28 AM -4.0 °F -22.1 °F -8.0 °F 83% 30.06 in 10.0 mi NW 11.5 mph - N/A   Mostly Cloudy
8:56 AM -2.0 °F -20.5 °F -8.0 °F 76% 30.33 in 10.0 mi NW 12.7 mph - N/A   Clear
9:56 AM 1.9 °F -18.1 °F -5.1 °F 72% 30.36 in 10.0 mi NNW 17.3 mph - N/A   Mostly Cloudy
10:56 AM 1.9 °F -18.7 °F -4.0 °F 76% 30.40 in 10.0 mi NNW 18.4 mph - N/A   Partly Cloudy
11:56 AM 3.0 °F -16.7 °F -2.9 °F 76% 30.40 in 10.0 mi NNW 17.3 mph - N/A   Partly Cloudy
12:56 PM 5.0 °F -14.2 °F -2.0 °F 73% 30.40 in 10.0 mi NNW 17.3 mph - N/A   Partly Cloudy
1:56 PM 5.0 °F -11.6 °F -2.0 °F 73% 30.40 in 10.0 mi NNW 12.7 mph - N/A   Clear
2:56 PM 5.0 °F -10.8 °F -2.9 °F 70% 30.41 in 10.0 mi NNW 11.5 mph - N/A   Clear
3:56 PM 3.9 °F -10.4 °F -4.0 °F 70% 30.43 in 10.0 mi NNW 9.2 mph - N/A   Clear
4:56 PM -0.9 °F -14.1 °F -7.1 °F 75% 30.45 in 10.0 mi NNW 6.9 mph - N/A   Clear
5:56 PM -2.0 °F -12.2 °F -6.0 °F 83% 30.46 in 10.0 mi NNW 4.6 mph - N/A   Clear
6:56 PM -5.1 °F -19.1 °F -9.0 °F 83% 30.48 in 10.0 mi North 6.9 mph - N/A   Clear
7:56 PM -6.0 °F - -11.0 °F 79% 30.47 in 10.0 mi Calm Calm - N/A   Clear
8:56 PM -6.0 °F - -9.0 °F 87% 30.46 in 10.0 mi Calm Calm - N/A   Clear
9:56 PM -11.0 °F - -15.0 °F 83% 30.48 in 10.0 mi Calm Calm - N/A   Clear
10:56 PM -17.0 °F -33.4 °F -22.0 °F 78% 30.48 in 10.0 mi NNE 6.9 mph - N/A   Clear
11:35 PM -18.0 °F -34.7 °F -22.0 °F 82% 30.15 in 10.0 mi NNE 6.9 mph - N/A   Scattered Clouds
11:43 PM -18.0 °F -33.0 °F -24.0 °F 74% 30.15 in 10.0 mi NNE 5.8 mph - N/A   Mostly Cloudy
11:56 PM -18.9 °F -32.0 °F -24.0 °F 78% 30.46 in 7.0 mi North 4.6 mph - N/A   Overcast